Погода в Бехбехане

Иран     30°35′37″N   50°14′18″E
темп.,
°C
ветер,
м/с
пор.,
м/с
влажн.,
%
обл.,
%
осадки,
мм/ч
давл.,
гПа
погр.,
м
10 мая, пн
пн1001:30+25в11270 0.0 100711
04:30+24в11290 0.0 100611
07:30+26всв11240 0.0 100711
10:30+33зсз12150 0.0 1007940
13:30+37з54110 0.0 10062203
16:30+38зсз76110 0.0 10042769
19:30+35зсз58100 0.0 1004154
22:30+29ююв33210 0.0 100614
11 мая, вт
вт1101:30+27в22250 0.0 100511
04:30+26юв22260 0.0 100611
07:30+28в22210 0.0 100720
10:30+36ююв11118 0.0 1007846
13:30+40зюз5485 0.0 10063531
16:30+40з748100 0.0 10043437
19:30+35юз44145 0.0 100460
22:30+31юв33259 0.0 100626
12 мая, ср
ср1201:30+28в12260 0.0 100611
04:30+27вюв11261 0.0 100611
07:30+30в32205 0.0 100719
10:30+36ююз21135 0.0 1007753
13:30+40з6688 0.0 10054200
16:30+40з778100 0.0 10034003
19:30+36зюз56120 0.0 1003102
22:30+30св11180 0.0 100511
13 мая, чт
чт1301:30+29сз22170 0.0 100511
04:30+27всв22185 0.0 100411
07:30+30всв22160 0.0 100511
10:30+36ююв22110 0.0 1005689
13:30+40з81070 0.0 10044681
16:30+40сз91071 0.0 10024897
19:30+37сз61080 0.0 1002179
22:30+32сз33120 0.0 100311
14 мая, пт
пт1401:30+29с12140 0.0 100311
04:30+29св33150 0.0 100311
07:30+30вюв22140 0.0 100411
10:30+36ю11944 0.0 1005879
13:30+40з6970 0.0 10044725
16:30+40зсз9965 0.0 10015203
19:30+36юз711110 0.0 1001258
22:30+30вюв44170 0.0 100323